����������;��������(kWh)
2017-08-21 00:00;88,15
2017-08-21 00:15;89,6
2017-08-21 00:30;87,9
2017-08-21 00:45;87,85
2017-08-21 01:00;88,65
2017-08-21 01:15;87,5
2017-08-21 01:30;85,4
2017-08-21 01:45;87
2017-08-21 02:00;86,7
2017-08-21 02:15;86,75
2017-08-21 02:30;86,95
2017-08-21 02:45;85,5
2017-08-21 03:00;87,2
2017-08-21 03:15;86,4
2017-08-21 03:30;88,05
2017-08-21 03:45;86,05
2017-08-21 04:00;85,65
2017-08-21 04:15;84,5
2017-08-21 04:30;85,9
2017-08-21 04:45;84,9
2017-08-21 05:00;84,85
2017-08-21 05:15;85,35
2017-08-21 05:30;86,75
2017-08-21 05:45;84,6
2017-08-21 06:00;90,8
2017-08-21 06:15;88,05
2017-08-21 06:30;88,3
2017-08-21 06:45;88,35
2017-08-21 07:00;89,8
2017-08-21 07:15;97
2017-08-21 07:30;96,35
2017-08-21 07:45;104
2017-08-21 08:00;108,15
2017-08-21 08:15;178,9
2017-08-21 08:30;191,5
2017-08-21 08:45;187,7
2017-08-21 09:00;186,35
2017-08-21 09:15;178,65
2017-08-21 09:30;203,95
2017-08-21 09:45;199,25
2017-08-21 10:00;206,6
2017-08-21 10:15;196,8
2017-08-21 10:30;198,2
2017-08-21 10:45;202
2017-08-21 11:00;202,65
2017-08-21 11:15;250,55
2017-08-21 11:30;283,8
2017-08-21 11:45;265,45
2017-08-21 12:00;249,75
2017-08-21 12:15;251,85
2017-08-21 12:30;265,25
2017-08-21 12:45;265,2
2017-08-21 13:00;264,05
2017-08-21 13:15;267,8
2017-08-21 13:30;264,35
2017-08-21 13:45;268,8
2017-08-21 14:00;258,7
2017-08-21 14:15;259,9
2017-08-21 14:30;253,3
2017-08-21 14:45;247,2
2017-08-21 15:00;246,7
2017-08-21 15:15;237,25
2017-08-21 15:30;229,75
2017-08-21 15:45;224,35
2017-08-21 16:00;220,6
2017-08-21 16:15;212,6
2017-08-21 16:30;206,1
2017-08-21 16:45;197,75
2017-08-21 17:00;200,5
2017-08-21 17:15;192,2
2017-08-21 17:30;190
2017-08-21 17:45;190,75
2017-08-21 18:00;184,3
2017-08-21 18:15;181
2017-08-21 18:30;182,95
2017-08-21 18:45;183,45
2017-08-21 19:00;165,65
2017-08-21 19:15;152,45
2017-08-21 19:30;153,3
2017-08-21 19:45;146,5
2017-08-21 20:00;145,95
2017-08-21 20:15;138,5
2017-08-21 20:30;138,9
2017-08-21 20:45;139,3
2017-08-21 21:00;136,95
2017-08-21 21:15;137,55
2017-08-21 21:30;130,3
2017-08-21 21:45;126,85
2017-08-21 22:00;119,6
2017-08-21 22:15;124,25
2017-08-21 22:30;119,65
2017-08-21 22:45;114,55
2017-08-21 23:00;118,3
2017-08-21 23:15;105,95
2017-08-21 23:30;108,3
2017-08-21 23:45;107,6
2017-08-22 00:00;106
2017-08-22 00:15;104,25
2017-08-22 00:30;104,75
2017-08-22 00:45;104,55
2017-08-22 01:00;101,05
2017-08-22 01:15;101,95
2017-08-22 01:30;96,65
2017-08-22 01:45;89,85
2017-08-22 02:00;88,05
2017-08-22 02:15;88,85
2017-08-22 02:30;85,7
2017-08-22 02:45;87,7
2017-08-22 03:00;87,7
2017-08-22 03:15;88,7
2017-08-22 03:30;87,55
2017-08-22 03:45;88,15
2017-08-22 04:00;86,85
2017-08-22 04:15;86,85
2017-08-22 04:30;86,9
2017-08-22 04:45;85
2017-08-22 05:00;88,7
2017-08-22 05:15;87,4
2017-08-22 05:30;88,2
2017-08-22 05:45;87,35
2017-08-22 06:00;90,95
2017-08-22 06:15;90,15
2017-08-22 06:30;96,75
2017-08-22 06:45;102,6
2017-08-22 07:00;100,6
2017-08-22 07:15;99,85
2017-08-22 07:30;153,65
2017-08-22 07:45;160,3
2017-08-22 08:00;133
2017-08-22 08:15;124,95
2017-08-22 08:30;128
2017-08-22 08:45;148,15
2017-08-22 09:00;140,25
2017-08-22 09:15;159,45
2017-08-22 09:30;178,45
2017-08-22 09:45;182,2
2017-08-22 10:00;195,35
2017-08-22 10:15;189,8
2017-08-22 10:30;201
2017-08-22 10:45;218,9
2017-08-22 11:00;242,15
2017-08-22 11:15;249,5
2017-08-22 11:30;256,1
2017-08-22 11:45;254,05
2017-08-22 12:00;268,95
2017-08-22 12:15;257,15
2017-08-22 12:30;269,05
2017-08-22 12:45;264,05
2017-08-22 13:00;275,35
2017-08-22 13:15;271,15
2017-08-22 13:30;265
2017-08-22 13:45;255,15
2017-08-22 14:00;237,3
2017-08-22 14:15;240,75
2017-08-22 14:30;239,7
2017-08-22 14:45;233,7
2017-08-22 15:00;232,45
2017-08-22 15:15;215,4
2017-08-22 15:30;209,35
2017-08-22 15:45;202,55
2017-08-22 16:00;199,55
2017-08-22 16:15;193,8
2017-08-22 16:30;188,15
2017-08-22 16:45;190,55
2017-08-22 17:00;182,65
2017-08-22 17:15;170,95
2017-08-22 17:30;167,9
2017-08-22 17:45;171,55
2017-08-22 18:00;165,25
2017-08-22 18:15;162,5
2017-08-22 18:30;159,05
2017-08-22 18:45;162,2
2017-08-22 19:00;158,85
2017-08-22 19:15;148,6
2017-08-22 19:30;146,1
2017-08-22 19:45;141,5
2017-08-22 20:00;146
2017-08-22 20:15;142,95
2017-08-22 20:30;138,55
2017-08-22 20:45;139,9
2017-08-22 21:00;134,7
2017-08-22 21:15;130,1
2017-08-22 21:30;131,2
2017-08-22 21:45;124,35
2017-08-22 22:00;118,45
2017-08-22 22:15;122,75
2017-08-22 22:30;123,4
2017-08-22 22:45;113,45
2017-08-22 23:00;110,4
2017-08-22 23:15;98,5
2017-08-22 23:30;98,9
2017-08-22 23:45;98,65
2017-08-23 00:00;96,2
2017-08-23 00:15;97,05
2017-08-23 00:30;97
2017-08-23 00:45;95,55
2017-08-23 01:00;95,1
2017-08-23 01:15;93,6
2017-08-23 01:30;92,35
2017-08-23 01:45;94,4
2017-08-23 02:00;95,7
2017-08-23 02:15;94,8
2017-08-23 02:30;93,9
2017-08-23 02:45;95,35
2017-08-23 03:00;93,85
2017-08-23 03:15;94,4
2017-08-23 03:30;95,3
2017-08-23 03:45;93,5
2017-08-23 04:00;95,05
2017-08-23 04:15;88,8
2017-08-23 04:30;88,9
2017-08-23 04:45;88,1
2017-08-23 05:00;89,35
2017-08-23 05:15;92,1
2017-08-23 05:30;89,3
2017-08-23 05:45;90,5
2017-08-23 06:00;92,25
2017-08-23 06:15;91,75
2017-08-23 06:30;108,95
2017-08-23 06:45;115,6
2017-08-23 07:00;111,75
2017-08-23 07:15;109,8
2017-08-23 07:30;116,3
2017-08-23 07:45;124,6
2017-08-23 08:00;126,6
2017-08-23 08:15;138,35
2017-08-23 08:30;141,65
2017-08-23 08:45;147,5
2017-08-23 09:00;155,7
2017-08-23 09:15;183,6
2017-08-23 09:30;226,55
2017-08-23 09:45;226,95
2017-08-23 10:00;199,2
2017-08-23 10:15;199,55
2017-08-23 10:30;196,05
2017-08-23 10:45;199,15
2017-08-23 11:00;199,5
2017-08-23 11:15;190,05
2017-08-23 11:30;206,1
2017-08-23 11:45;252,85
2017-08-23 12:00;236,3
2017-08-23 12:15;227,65
2017-08-23 12:30;231
2017-08-23 12:45;235,4
2017-08-23 13:00;235,55
2017-08-23 13:15;231,55
2017-08-23 13:30;228,15
2017-08-23 13:45;237,6
2017-08-23 14:00;234,9
2017-08-23 14:15;228,4
2017-08-23 14:30;213,25
2017-08-23 14:45;212,8
2017-08-23 15:00;205,15
2017-08-23 15:15;202,5
2017-08-23 15:30;196,1
2017-08-23 15:45;190,4
2017-08-23 16:00;191,3
2017-08-23 16:15;180,45
2017-08-23 16:30;168,5
2017-08-23 16:45;192,15
2017-08-23 17:00;181
2017-08-23 17:15;174,8
2017-08-23 17:30;174,7
2017-08-23 17:45;169,25
2017-08-23 18:00;169,8
2017-08-23 18:15;154,2
2017-08-23 18:30;148,05
2017-08-23 18:45;148,65
2017-08-23 19:00;145,3
2017-08-23 19:15;139,1
2017-08-23 19:30;129,8
2017-08-23 19:45;131,05
2017-08-23 20:00;122,1
2017-08-23 20:15;124,6
2017-08-23 20:30;126,7
2017-08-23 20:45;121,7
2017-08-23 21:00;121,5
2017-08-23 21:15;121,1
2017-08-23 21:30;116,75
2017-08-23 21:45;110,6
2017-08-23 22:00;105,3
2017-08-23 22:15;109,6
2017-08-23 22:30;103,2
2017-08-23 22:45;97,1
2017-08-23 23:00;102,3
2017-08-23 23:15;90,45
2017-08-23 23:30;91,1
2017-08-23 23:45;90,7
2017-08-24 00:00;90,35
2017-08-24 00:15;90,5
2017-08-24 00:30;91,55
2017-08-24 00:45;93,45
2017-08-24 01:00;90,45
2017-08-24 01:15;91,15
2017-08-24 01:30;92,1
2017-08-24 01:45;88,3
2017-08-24 02:00;89,35
2017-08-24 02:15;88,35
2017-08-24 02:30;89,35
2017-08-24 02:45;88,45
2017-08-24 03:00;87,7
2017-08-24 03:15;88,25
2017-08-24 03:30;87,35
2017-08-24 03:45;88,35
2017-08-24 04:00;87,15
2017-08-24 04:15;86,3
2017-08-24 04:30;84,35
2017-08-24 04:45;85,05
2017-08-24 05:00;87,2
2017-08-24 05:15;86,9
2017-08-24 05:30;85,4
2017-08-24 05:45;87,45
2017-08-24 06:00;90,4
2017-08-24 06:15;89,75
2017-08-24 06:30;98,95
2017-08-24 06:45;112,3
2017-08-24 07:00;103,8
2017-08-24 07:15;107,75
2017-08-24 07:30;147,75
2017-08-24 07:45;168,55
2017-08-24 08:00;166,2
2017-08-24 08:15;138,65
2017-08-24 08:30;143,95
2017-08-24 08:45;165,3
2017-08-24 09:00;160,95
2017-08-24 09:15;160,45
2017-08-24 09:30;165,4
2017-08-24 09:45;166,6
2017-08-24 10:00;176,65
2017-08-24 10:15;182,95
2017-08-24 10:30;188,3
2017-08-24 10:45;180,4
2017-08-24 11:00;188,4
2017-08-24 11:15;196,2
2017-08-24 11:30;193,8
2017-08-24 11:45;201,75
2017-08-24 12:00;202,9
2017-08-24 12:15;200,95
2017-08-24 12:30;243,9
2017-08-24 12:45;255,15
2017-08-24 13:00;238,55
2017-08-24 13:15;215,7
2017-08-24 13:30;223,5
2017-08-24 13:45;234,65
2017-08-24 14:00;214,9
2017-08-24 14:15;226,2
2017-08-24 14:30;216,6
2017-08-24 14:45;198,1
2017-08-24 15:00;191,85
2017-08-24 15:15;191,2
2017-08-24 15:30;185
2017-08-24 15:45;182,35
2017-08-24 16:00;176,75
2017-08-24 16:15;178,25
2017-08-24 16:30;175,2
2017-08-24 16:45;178,35
2017-08-24 17:00;173,6
2017-08-24 17:15;169,25
2017-08-24 17:30;167,75
2017-08-24 17:45;161,7
2017-08-24 18:00;160,8
2017-08-24 18:15;153,7
2017-08-24 18:30;147,6
2017-08-24 18:45;146,8
2017-08-24 19:00;140,25
2017-08-24 19:15;135
2017-08-24 19:30;130,25
2017-08-24 19:45;132,4
2017-08-24 20:00;131,6
2017-08-24 20:15;125,8
2017-08-24 20:30;130,45
2017-08-24 20:45;131,25
2017-08-24 21:00;126,95
2017-08-24 21:15;120,95
2017-08-24 21:30;121,35
2017-08-24 21:45;121,1
2017-08-24 22:00;113,45
2017-08-24 22:15;117,65
2017-08-24 22:30;114,65
2017-08-24 22:45;108,4
2017-08-24 23:00;114,35
2017-08-24 23:15;103,95
2017-08-24 23:30;99,4
2017-08-24 23:45;88,4
2017-08-25 00:00;90,5
2017-08-25 00:15;89,3
2017-08-25 00:30;88
2017-08-25 00:45;87,35
2017-08-25 01:00;88,1
2017-08-25 01:15;87,5
2017-08-25 01:30;86,35
2017-08-25 01:45;85,4
2017-08-25 02:00;85,7
2017-08-25 02:15;86,95
2017-08-25 02:30;85,15
2017-08-25 02:45;85,5
2017-08-25 03:00;85,5
2017-08-25 03:15;86,5
2017-08-25 03:30;86,5
2017-08-25 03:45;84,95
2017-08-25 04:00;85,2
2017-08-25 04:15;85,5
2017-08-25 04:30;84,7
2017-08-25 04:45;86,15
2017-08-25 05:00;84,6
2017-08-25 05:15;83,9
2017-08-25 05:30;85,05
2017-08-25 05:45;86,95
2017-08-25 06:00;89,4
2017-08-25 06:15;88,2
2017-08-25 06:30;89
2017-08-25 06:45;99,05
2017-08-25 07:00;98,25
2017-08-25 07:15;106,3
2017-08-25 07:30;108,1
2017-08-25 07:45;112,4
2017-08-25 08:00;119,35
2017-08-25 08:15;122,25
2017-08-25 08:30;126
2017-08-25 08:45;135,4
2017-08-25 09:00;139,05
2017-08-25 09:15;140,4
2017-08-25 09:30;141,65
2017-08-25 09:45;158,6
2017-08-25 10:00;213,2
2017-08-25 10:15;176,7
2017-08-25 10:30;177,3
2017-08-25 10:45;214,3
2017-08-25 11:00;225,65
2017-08-25 11:15;202,8
2017-08-25 11:30;212,75
2017-08-25 11:45;211,4
2017-08-25 12:00;222,25
2017-08-25 12:15;212
2017-08-25 12:30;202,25
2017-08-25 12:45;198,95
2017-08-25 13:00;196,9
2017-08-25 13:15;223,5
2017-08-25 13:30;245,5
2017-08-25 13:45;218,95
2017-08-25 14:00;206,7
2017-08-25 14:15;198,25
2017-08-25 14:30;212,5
2017-08-25 14:45;192
2017-08-25 15:00;193,6
2017-08-25 15:15;183,95
2017-08-25 15:30;174,15
2017-08-25 15:45;173,2
2017-08-25 16:00;167,85
2017-08-25 16:15;164,35
2017-08-25 16:30;166,9
2017-08-25 16:45;169,3
2017-08-25 17:00;161,55
2017-08-25 17:15;157,5
2017-08-25 17:30;153,3
2017-08-25 17:45;148,2
2017-08-25 18:00;148,4
2017-08-25 18:15;143,05
2017-08-25 18:30;143,35
2017-08-25 18:45;138,6
2017-08-25 19:00;136,2
2017-08-25 19:15;133
2017-08-25 19:30;129,7
2017-08-25 19:45;130,5
2017-08-25 20:00;127,7
2017-08-25 20:15;123,95
2017-08-25 20:30;123,65
2017-08-25 20:45;124,05
2017-08-25 21:00;126,25
2017-08-25 21:15;120,15
2017-08-25 21:30;116,35
2017-08-25 21:45;116
2017-08-25 22:00;105,8
2017-08-25 22:15;114,1
2017-08-25 22:30;113,5
2017-08-25 22:45;106,55
2017-08-25 23:00;106,65
2017-08-25 23:15;94,5
2017-08-25 23:30;97,5
2017-08-25 23:45;95,4
2017-08-26 00:00;95,6
2017-08-26 00:15;90,65
2017-08-26 00:30;86,95
2017-08-26 00:45;88,15
2017-08-26 01:00;87,85
2017-08-26 01:15;86,4
2017-08-26 01:30;86,45
2017-08-26 01:45;83,65
2017-08-26 02:00;85,6
2017-08-26 02:15;83,9
2017-08-26 02:30;86,75
2017-08-26 02:45;86,95
2017-08-26 03:00;83,6
2017-08-26 03:15;86,3
2017-08-26 03:30;84,2
2017-08-26 03:45;86
2017-08-26 04:00;85,6
2017-08-26 04:15;85,95
2017-08-26 04:30;83,4
2017-08-26 04:45;86,8
2017-08-26 05:00;84,1
2017-08-26 05:15;83
2017-08-26 05:30;84,15
2017-08-26 05:45;85,5
2017-08-26 06:00;93,4
2017-08-26 06:15;93,2
2017-08-26 06:30;96,8
2017-08-26 06:45;92,05
2017-08-26 07:00;90,5
2017-08-26 07:15;86,95
2017-08-26 07:30;86,9
2017-08-26 07:45;85,7
2017-08-26 08:00;85,85
2017-08-26 08:15;85,3
2017-08-26 08:30;81,55
2017-08-26 08:45;84,9
2017-08-26 09:00;82
2017-08-26 09:15;84,45
2017-08-26 09:30;83,8
2017-08-26 09:45;82,85
2017-08-26 10:00;84,1
2017-08-26 10:15;83,7
2017-08-26 10:30;90,2
2017-08-26 10:45;96,45
2017-08-26 11:00;95,5
2017-08-26 11:15;95,4
2017-08-26 11:30;97,55
2017-08-26 11:45;100,5
2017-08-26 12:00;101,9
2017-08-26 12:15;98,9
2017-08-26 12:30;101,65
2017-08-26 12:45;101,8
2017-08-26 13:00;99
2017-08-26 13:15;102,5
2017-08-26 13:30;103,05
2017-08-26 13:45;102,8
2017-08-26 14:00;103,6
2017-08-26 14:15;98,05
2017-08-26 14:30;93,3
2017-08-26 14:45;92,85
2017-08-26 15:00;91,5
2017-08-26 15:15;88,55
2017-08-26 15:30;89,85
2017-08-26 15:45;90,75
2017-08-26 16:00;90,15
2017-08-26 16:15;90,2
2017-08-26 16:30;91,85
2017-08-26 16:45;93,75
2017-08-26 17:00;95
2017-08-26 17:15;92,6
2017-08-26 17:30;93
2017-08-26 17:45;94,05
2017-08-26 18:00;94,25
2017-08-26 18:15;91,4
2017-08-26 18:30;90,15
2017-08-26 18:45;91,7
2017-08-26 19:00;91,45
2017-08-26 19:15;93,95
2017-08-26 19:30;94,35
2017-08-26 19:45;93
2017-08-26 20:00;92,25
2017-08-26 20:15;100,4
2017-08-26 20:30;102,75
2017-08-26 20:45;100,7
2017-08-26 21:00;99
2017-08-26 21:15;102,2
2017-08-26 21:30;101,75
2017-08-26 21:45;99,6
2017-08-26 22:00;93,3
2017-08-26 22:15;101,35
2017-08-26 22:30;99
2017-08-26 22:45;98,45
2017-08-26 23:00;99,85
2017-08-26 23:15;89,5
2017-08-26 23:30;86,05
2017-08-26 23:45;88,85
2017-08-27 00:00;86,9
2017-08-27 00:15;88,35
2017-08-27 00:30;87,55
2017-08-27 00:45;85,3
2017-08-27 01:00;86,7
2017-08-27 01:15;84,9
2017-08-27 01:30;86,1
2017-08-27 01:45;83,5
2017-08-27 02:00;85,3
2017-08-27 02:15;83,55
2017-08-27 02:30;86,25
2017-08-27 02:45;83,75
2017-08-27 03:00;85,25
2017-08-27 03:15;83,9
2017-08-27 03:30;85,4
2017-08-27 03:45;84,85
2017-08-27 04:00;86,4
2017-08-27 04:15;86,8
2017-08-27 04:30;87,6
2017-08-27 04:45;89,25
2017-08-27 05:00;87,05
2017-08-27 05:15;88
2017-08-27 05:30;87,05
2017-08-27 05:45;89,25
2017-08-27 06:00;89,65
2017-08-27 06:15;92,05
2017-08-27 06:30;94,85
2017-08-27 06:45;94,4
2017-08-27 07:00;91
2017-08-27 07:15;85,7
2017-08-27 07:30;87,8
2017-08-27 07:45;83,35
2017-08-27 08:00;83,45
2017-08-27 08:15;79,3
2017-08-27 08:30;82,8
2017-08-27 08:45;79,55
2017-08-27 09:00;81,85
2017-08-27 09:15;82,1
2017-08-27 09:30;82,6
2017-08-27 09:45;82,35
2017-08-27 10:00;81,85
2017-08-27 10:15;84,35
2017-08-27 10:30;84,45
2017-08-27 10:45;82,05
2017-08-27 11:00;85,65
2017-08-27 11:15;86,5
2017-08-27 11:30;84,45
2017-08-27 11:45;85,3
2017-08-27 12:00;87,1
2017-08-27 12:15;89,6
2017-08-27 12:30;89,8
2017-08-27 12:45;90,95
2017-08-27 13:00;88,65
2017-08-27 13:15;85,55
2017-08-27 13:30;84,3
2017-08-27 13:45;84,6
2017-08-27 14:00;87,25
2017-08-27 14:15;88,95
2017-08-27 14:30;93,7
2017-08-27 14:45;86,65
2017-08-27 15:00;92,05
2017-08-27 15:15;87,9
2017-08-27 15:30;87,15
2017-08-27 15:45;84,05
2017-08-27 16:00;86,9
2017-08-27 16:15;91,1
2017-08-27 16:30;94,8
2017-08-27 16:45;95,3
2017-08-27 17:00;93,7
2017-08-27 17:15;97,8
2017-08-27 17:30;92,05
2017-08-27 17:45;100,05
2017-08-27 18:00;93,9
2017-08-27 18:15;89,8
2017-08-27 18:30;86,3
2017-08-27 18:45;88,3
2017-08-27 19:00;88,45
2017-08-27 19:15;87,4
2017-08-27 19:30;88,5
2017-08-27 19:45;92,35
2017-08-27 20:00;87,9
2017-08-27 20:15;97,35
2017-08-27 20:30;101,35
2017-08-27 20:45;102,8
2017-08-27 21:00;103,6
2017-08-27 21:15;101,55
2017-08-27 21:30;101,1
2017-08-27 21:45;102,9
2017-08-27 22:00;97,05
2017-08-27 22:15;102,5
2017-08-27 22:30;105,8
2017-08-27 22:45;100,2
2017-08-27 23:00;104,95
2017-08-27 23:15;96,25
2017-08-27 23:30;91,9
2017-08-27 23:45;92,9

